Regional Weather Roundup
Issued by NWS

Home | Current Version | Previous Version | Text Only | Print | Product List | Glossary Off
Versions: 1 2 3 4 5 6 7 8 9 10 11 12 13 14 15 16 17 18 19 20 21 22 23 24 25 26 27 28 29 30 31 32 33 34 35 36 37 38 39 40 41 42 43 44 45 46 47 48 49 50

420
ASUS45 KSLC 110910
RWRUT

UTAH REGIONAL WEATHER ROUNDUP
NATIONAL WEATHER SERVICE SALT LAKE CITY UT
200 AM MST THU FEB 11 2016

UTZ001>011-023>025-111000-

NORTHERN UTAH

CITY           SKY/WX    TMP DP  RH WIND       PRES   REMARKS
BRIGHAM CITY   CLOUDY    26  25  93 CALM      30.48S VSB 1
HILL AFB       FOG       26  24  91 SE2       30.45S VSB 1/2
LOGAN          FOG       23  22  96 CALM      30.45F VSB 1/2
OGDEN          FOG       26  26 100 CALM      30.46S VSB 3/4
PROVO AIRPORT    N/A    N/A N/A N/A W5        30.44S VSB<1/4
SALT LAKE CITY CLOUDY    29  28  96 W3        30.47S FOG
VERNAL         CLOUDY    11   8  88 W6        30.40S FOG     WCI   1
WENDOVER       CLOUDY    30  27  86 NW3       30.46S
HEBER CITY     PTCLDY     9   5  85 CALM      30.41S FOG
WEST JORDAN    CLOUDY    28  28 100 CALM      30.46S

$$

UTZ012>022-026-027-111000-

SOUTHERN/CENTRAL UTAH

CITY           SKY/WX    TMP DP  RH WIND       PRES   REMARKS
BLANDING       PTCLDY    28  21  73 NW6       30.41S WCI  22
BRYCE CANYON   PTCLDY    20   8  60 W9        30.42F WCI   9
CEDAR CITY     PTCLDY    20  17  88 CALM      30.38F
DELTA          CLOUDY     9   7  92 NE3       30.44F VSB 1/4
HANKSVILLE     MOCLDY    28  28 100 CALM      30.41S
MILFORD        CLOUDY     4   2  91 SW9       30.41F FOG     WCI -10
MOAB/CYNLANDS  PTCLDY    26  23  88 CALM      30.38S
PRICE          PTCLDY    22  14  71 CALM      30.36S
ST GEORGE      MOSUNNY   41  25  52 S3        30.32S
KANAB          CLEAR     32  28  86 NE6       30.37S WCI  26

$$

REGIONAL REPORTS     COLORADO/ARIZONA

CITY           SKY/WX    TMP DP  RH WIND       PRES   REMARKS
CRAIG, CO      CLOUDY    -1  -4  87 CALM      30.39S
GRAND JUNCTION CLOUDY    25  23  92 CALM      30.39S
RIFLE          CLOUDY    19  13  77 CALM      30.42S
MONTROSE       CLOUDY    23  16  74 S6        30.43R WCI  16
CORTEZ         CLOUDY    22  16  78 E10       30.36S WCI  11
PAGE, AZ       CLEAR     37  28  70 CALM      30.35S
GRAND CANYON   PTCLDY    21  16  81 CALM      30.37F
KINGMAN        CLEAR     39 N/A N/A CALM      30.26S
FLAGSTAFF      PTCLDY    21  16  81 E3        30.38S

$$

REGIONAL REPORTS    NEVADA/IDAHO/WYOMING

CITY           SKY/WX    TMP DP  RH WIND       PRES   REMARKS
LAS VEGAS, NV  CLEAR     51  26  37 W5        30.21R
ELY            MOCLDY    19  10  68 S18       30.39F WCI   4
ELKO           CLOUDY    13  10  88 E5        30.42S WCI   5
POCATELLO, ID  CLOUDY    18  16  92 NE6       30.41R WCI  10
EVANSTON, WY   CLOUDY    28  12  51 S8        30.38S WCI  20
ROCK SPRINGS   CLOUDY    33  16  49 SW22      30.31F WCI  21
KEMMERER       CLOUDY    30  14  51 W5        30.36S WCI  25

$$




USA.gov is the U.S. government's official web portal to all federal, state and local government web resources and services.